• Join FlightAware (Why Join?)
  • Login
  • US Flag 
09:01PM EST


 

Airport Tracker/Info


-or-


 

Live Flight TrackerFlight Track Log ✈ DAL6234 ✈ 26-Apr-2013 ✈ KLGA - KSYR

Flight Track Log - Related Links

Times and Time Zones

All times are in EDT time to prevent confusion due to time zone crossing. See the DAL6234 flight status page for this flight to view local times or setup timezone preferences in your user account.

Time Position Orientation Groundspeed Altitude Reporting Facility
EDT Latitude Longitude Course Direction KTS MPH feet Rate Location/Type
04:13PM 40.8333 -73.8333 313° West 195 224 2,500  Level New York TRACON
04:14PM 40.8833 -73.8167 14° North 243 280 5,000 2,850 Climbing New York TRACON
04:15PM 40.9333 -73.8833 315° West 265 305 8,200 2,850 Climbing New York TRACON
04:16PM 40.9667 -73.9667 298° West 282 325 10,700 1,750 Climbing New York TRACON
04:17PM 41.0167 -74.0833 300° West 344 396 11,700 1,557 Climbing New York TRACON
04:19PM 41.0551 -74.3144 313° West  Level FlightAware Approximate
04:19PM 41.0953 -74.2678 300° West 396 456 14,800  Level New York Center
04:20PM 41.1458 -74.3861 300° West 379 436 15,000 496 Climbing New York Center
04:21PM 41.1964 -74.5044 300° West 374 430 15,800 492 Climbing New York Center
04:22PM 41.2531 -74.6208 303° West 380 437 16,000 958 Climbing New York Center
04:23PM 41.3222 -74.7297 310° West 380 437 17,700 1,322 Climbing New York Center
04:24PM 41.3894 -74.8361 310° West 380 437 18,600 1,033 Climbing New York Center
04:25PM 41.4525 -74.9367 310° West 386 444 19,800 1,033 Climbing New York Center
04:26PM 41.5233 -75.0547 309° West 396 456 20,700 1,077 Climbing New York Center
04:27PM 41.6003 -75.1733 311° West 408 470 21,900 661 Climbing New York Center
04:28PM 41.6686 -75.2917 308° West 415 478 22,000 49 Climbing New York Center
04:29PM 41.7389 -75.4106 308° West 410 472 22,000  Level New York Center
04:30PM 41.8092 -75.5322 308° West 410 472 22,000  Level New York Center
04:31PM 41.8869 -75.6658 308° West 415 478 22,000  Level New York Center
04:32PM 41.9569 -75.7881 308° West 415 478 22,000 -248 Level New York Center
04:33PM 42.0286 -75.9108 308° West 415 478 21,500 -1,388 Descending New York Center
04:34PM 42.0983 -76.0308 308° West 415 478 19,200 -2,370 Descending New York Center
04:35PM 42.1794 -76.1242 320° Northwest 393 452 16,800 -2,168 Descending New York Center
04:36PM 42.2836 -76.1242 360° North 355 409 14,900 -1,763 Descending New York Center
04:38PM 42.4683 -76.1053 North 389 448 12,100 -1,472 Descending Boston Center
04:39PM 42.5689 -76.0942 North 374 430 11,000 -694 Descending Boston Center
04:40PM 42.6628 -76.0856 North 322 371 10,700 -835 Descending Boston Center
04:41PM 42.7342 -76.0756 North 265 305 9,400 -1,617 Descending Boston Center
04:42PM 42.8092 -76.0772 359° North 263 303 7,600 -1,770 Descending Boston Center
04:43PM 42.8806 -76.0558 12° North 259 298 5,800 -1,654 Descending Boston Center
04:44PM 42.9511 -76.0033 29° Northeast 253 291 4,100 -1,228 Descending Boston Center
04:45PM 43.0181 -75.9931 North 248 285 3,200 -984 Descending Boston Center
04:46PM 43.0825 -76.0053 352° North 229 264 2,100 -992 Descending Boston Center
04:47PM 43.1103 -76.0494 311° West 140 161 1,200 -900 Descending Boston Center